ONEWEB-0061, 45428

Orbit data source: Space-Track

ONEWEB-0061, 45428 is a payload satellite owned by One Web (UK) in LEO that was launched on Sat, 21 Mar 2020 UTC via a SOYUZ-2-1B launch vehicle from the Tyuratam Missile And Space Complex (TTMTR). Payload-class satellites include a variety of spacecraft equipped with specific instruments for various scientific and technological missions. These include communications satellites like Starlink; space stations such as the ISS; scientific satellites like the Hubble; Earth observation satellites from companies like Planet Labs, Umbra, and HawkEye 360; GPS; miniature CubeSats for education and research; and military/defense satellites.

Loading next visibility...
Identifier
45428, 2020-020E
Orbit
LEO
Country
Flag of UKUK
Related business
Manufacturer
One Web
Mission
Operational Commercial Communications
Bus & Motor
ARROW, Unknown motor
Mass
148 kg wet, ~140 kg dry
Launch date (UTC)
2020-03-21 (5 years ago)
Launch vehicle
SOYUZ-2-1B
Launch site
Tyuratam Missile And Space Complex (TTMTR)
Object type
Payload
Rocket body
Debris
Shape & HBR
Trap Box + 2 Pan, 2.5 m
Radar Cross Section
2.957 m², Large (>1 m²)

Expand to show TLE details & history
Last TLE update: 9 hours ago

TLE from 9 hours ago
0 ONEWEB-0061
1 45428U 20020E   25243.24084993 -.00000108  00000-0 -34195-3 0  9998
2 45428  87.8777  78.8171 0001672  84.4152 275.7167 13.11413571264623
Epoch: 2025-08-31T05:46Z
TLE epoch observation values (Epoch: 2025-08-31T05:46:49.433Z)
Latitude
-0°
Longitude
12.4475°
Altitude
1,220.458 km
Speed
7.244 km/s
True Right ascension
05h 15m 16s
True Declination
0° 00' 00"
Sunlit
Object was in daylight at epoch
Visualization orbit readout
Latitude
Unknown
Longitude
Unknown
Altitude
Unknown
Speed
Unknown
Apparent Right ascension
Unknown
Apparent Declination
Unknown
Sunlit
N/A
Visualization observer readout
Local Sidereal Time
06:47:53
Azimuth
Unknown
Elevation
Unknown
Doppler factor
Unknown
Orbital elements
Apogee altitude
1,216.084 km
Perigee altitude
1,213.545 km
Semi-major axis
7,592.951 km
Eccentricity
0.00017
Inclination
87.8777°
RAAN
78.8171°
Arg. of periapsis
84.4152°
True anomaly
275.69764°
Mean anomaly
275.7167°
Eccentric anomaly
275.70717°
Mean motion
3.2804 °/min
Orbital period
109.74 mins
BSTAR
-0.00034195
Loading maneuver chart data...
Computing Atmospheric mass density...
Loading historical data...
Loading historical data...
Loading historical data...
Loading historical data...
Loading historical data...
Loading historical data...
Loading historical data...

Documentation

Showing up to 5 results
|